BREEZE-M DEB, 39327

Orbit data source: Space-Track

BREEZE-M DEB, 39327 is space debris in HEO originally from a launch on Fri, 14 Mar 2008 UTC launched from the Tyuratam Missile And Space Complex (TTMTR). Debris objects in space refer to the collection of defunct objects orbiting the Earth. Examples of debris include non-operational satellites, rocket bodies, and fragments generated from explosions, collisions, or faulty payload assembly.

Loading next visibility...
Identifier
39327, 2008-011DE
Orbit
HEO
Country
Flag of CISCIS
Related business
Manufacturer
Unknown
Mission
Spacecraft
Bus & Motor
Unknown
Mass
Unknown
Launch date (UTC)
2008-03-14 (18 years ago)
Launch vehicle
Unknown
Launch site
Tyuratam Missile And Space Complex (TTMTR)
Object type
Payload
Rocket body
Debris
Shape & HBR
Unknown shape, 0.2 m
Radar Cross Section
Medium (>0.1 m² and <1 m²)

Expand to show TLE details & history
Last TLE update: 3 days ago

TLE from 3 days ago
0 BREEZE-M DEB
1 39327U 08011DE  26170.87198977  .00000689  00000-0  71336-2 0  9991
2 39327  49.4693 118.1334 6586963  79.5955 352.7438  2.95014486  1153
Epoch: 2026-06-19T20:55Z
TLE epoch observation values (Epoch: 2026-06-19T20:55:39.916Z)
Latitude
26.99549°
Longitude
-78.22503°
Altitude
1,476.538 km
Speed
9.063 km/s
True Right ascension
09h 35m 08s
True Declination
26° 52' 10"
Sunlit
Object was in daylight at epoch
Visualization orbit readout
Latitude
Unknown
Longitude
Unknown
Altitude
Unknown
Speed
Unknown
Apparent Right ascension
Unknown
Apparent Declination
Unknown
Sunlit
N/A
Visualization observer readout
Local Sidereal Time
06:36:46
Azimuth
Unknown
Elevation
Unknown
Doppler factor
Unknown
Orbital elements
Apogee altitude
27,685.235 km
Perigee altitude
630.955 km
Semi-major axis
20,536.232 km
Eccentricity
0.6587
Inclination
49.4693°
RAAN
118.1334°
Arg. of periapsis
79.5955°
True anomaly
316.66899°
Mean anomaly
352.7438°
Eccentric anomaly
339.56998°
Mean motion
0.7375 °/min
Orbital period
488.14 mins
BSTAR
0.0071336
Loading maneuver chart data...
Computing Atmospheric mass density...
Loading historical data...
Loading historical data...
Loading historical data...
Loading historical data...
Loading historical data...
Loading historical data...
Loading historical data...

Documentation

Showing up to 5 results
|